contact:dominique.lefevre@mio.osupytheas.fr, maurice.libes@osupytheas.fr, didier.mallarino@osupytheas.fr
Project:EMSO http://www.emso-fr.org/EMSO-France
Depth: 2436.0 m
Title:EMSO Ligure Ouest : Data MII capteur MICROCAT
DateTime_Computer,Latitude,Longitude,Temperature,Conductivity,Pressure,DateTime_Instrument
DateTime_Computer,Latitude,Longitude,degC,S m-1,dbar,DateTime_Instrument
2019-05-19T00:00:45Z,42.805,6.029,13.3002,4.59986,2469.424,2019-5-19T02:00:59Z
2019-05-19T00:03:48Z,42.805,6.029,13.2997,4.59979,2469.424,2019-5-19T02:04:02Z
2019-05-19T00:06:51Z,42.805,6.029,13.3003,4.59988,2469.47,2019-5-19T02:07:05Z
2019-05-19T00:09:54Z,42.805,6.029,13.2983,4.59984,2469.424,2019-5-19T02:10:08Z
2019-05-19T00:12:57Z,42.805,6.029,13.2994,4.59994,2469.4,2019-5-19T02:13:11Z
2019-05-19T00:16:00Z,42.805,6.029,13.3004,4.59986,2469.41,2019-5-19T02:16:14Z
2019-05-19T00:19:03Z,42.805,6.029,13.2994,4.59983,2469.4,2019-5-19T02:19:17Z
2019-05-19T00:22:06Z,42.805,6.029,13.3002,4.59981,2469.41,2019-5-19T02:22:20Z
2019-05-19T00:25:09Z,42.805,6.029,13.2987,4.59981,2469.424,2019-5-19T02:25:23Z
2019-05-19T00:28:12Z,42.805,6.029,13.2995,4.59996,2469.377,2019-5-19T02:28:26Z
2019-05-19T00:31:15Z,42.805,6.029,13.3000,4.59982,2469.41,2019-5-19T02:31:29Z
2019-05-19T00:34:18Z,42.805,6.029,13.2996,4.59970,2469.424,2019-5-19T02:34:32Z
2019-05-19T00:37:21Z,42.805,6.029,13.3002,4.59983,2469.41,2019-5-19T02:37:35Z
2019-05-19T00:40:24Z,42.805,6.029,13.2989,4.59984,2469.447,2019-5-19T02:40:38Z
2019-05-19T00:43:27Z,42.805,6.029,13.2981,4.59975,2469.4,2019-5-19T02:43:41Z
2019-05-19T00:46:30Z,42.805,6.029,13.2997,4.59985,2469.386,2019-5-19T02:46:44Z
2019-05-19T00:49:33Z,42.805,6.029,13.2982,4.59970,2469.386,2019-5-19T02:49:47Z
2019-05-19T00:52:36Z,42.805,6.029,13.2976,4.59980,2469.447,2019-5-19T02:52:50Z
2019-05-19T00:55:38Z,42.805,6.029,13.2979,4.59985,2469.386,2019-5-19T02:55:53Z
2019-05-19T00:58:41Z,42.805,6.029,13.2984,4.59984,2469.4,2019-5-19T02:58:56Z
2019-05-19T01:01:44Z,42.805,6.029,13.2989,4.59978,2469.4,2019-5-19T03:01:58Z
2019-05-19T01:04:47Z,42.805,6.029,13.2986,4.59982,2469.377,2019-5-19T03:05:01Z
2019-05-19T01:07:50Z,42.805,6.029,13.2980,4.59978,2469.4,2019-5-19T03:08:04Z
2019-05-19T01:10:53Z,42.805,6.029,13.2983,4.59986,2469.386,2019-5-19T03:11:07Z
2019-05-19T01:13:56Z,42.805,6.029,13.2991,4.59983,2469.4,2019-5-19T03:14:10Z
2019-05-19T01:16:59Z,42.805,6.029,13.3014,4.59976,2469.363,2019-5-19T03:17:13Z
2019-05-19T01:20:02Z,42.805,6.029,13.2989,4.59981,2469.41,2019-5-19T03:20:16Z
2019-05-19T01:23:05Z,42.805,6.029,13.2985,4.59981,2469.4,2019-5-19T03:23:19Z
2019-05-19T01:26:08Z,42.805,6.029,13.2984,4.59987,2469.363,2019-5-19T03:26:22Z
2019-05-19T01:29:11Z,42.805,6.029,13.2982,4.59982,2469.377,2019-5-19T03:29:25Z
2019-05-19T01:32:14Z,42.805,6.029,13.2996,4.59984,2469.363,2019-5-19T03:32:28Z
2019-05-19T01:35:17Z,42.805,6.029,13.2989,4.59976,2469.354,2019-5-19T03:35:31Z
2019-05-19T01:38:20Z,42.805,6.029,13.2982,4.59978,2469.363,2019-5-19T03:38:34Z
2019-05-19T01:41:23Z,42.805,6.029,13.2980,4.59986,2469.363,2019-5-19T03:41:37Z
2019-05-19T01:44:26Z,42.805,6.029,13.2978,4.59980,2469.34,2019-5-19T03:44:40Z
2019-05-19T01:47:29Z,42.805,6.029,13.2982,4.59983,2469.377,2019-5-19T03:47:43Z
2019-05-19T01:50:32Z,42.805,6.029,13.2975,4.59995,2469.4,2019-5-19T03:50:46Z
2019-05-19T01:53:34Z,42.805,6.029,13.2984,4.59982,2469.377,2019-5-19T03:53:49Z
2019-05-19T01:56:37Z,42.805,6.029,13.2984,4.59985,2469.4,2019-5-19T03:56:52Z
2019-05-19T01:59:40Z,42.805,6.029,13.2980,4.59980,2469.377,2019-5-19T03:59:54Z
2019-05-19T02:02:43Z,42.805,6.029,13.2988,4.59979,2469.377,2019-5-19T04:02:57Z
2019-05-19T02:05:46Z,42.805,6.029,13.3000,4.59978,2469.4,2019-5-19T04:06:00Z
2019-05-19T02:08:49Z,42.805,6.029,13.2986,4.59980,2469.4,2019-5-19T04:09:03Z
2019-05-19T02:11:52Z,42.805,6.029,13.2991,4.59985,2469.4,2019-5-19T04:12:06Z
2019-05-19T02:14:55Z,42.805,6.029,13.2981,4.59974,2469.34,2019-5-19T04:15:09Z
2019-05-19T02:17:58Z,42.805,6.029,13.2979,4.59981,2469.363,2019-5-19T04:18:12Z
2019-05-19T02:21:01Z,42.805,6.029,13.2980,4.59978,2469.424,2019-5-19T04:21:15Z
2019-05-19T02:24:04Z,42.805,6.029,13.2976,4.59970,2469.377,2019-5-19T04:24:18Z
2019-05-19T02:27:07Z,42.805,6.029,13.2990,4.59989,2469.377,2019-5-19T04:27:21Z
2019-05-19T02:30:10Z,42.805,6.029,13.3004,4.59982,2469.377,2019-5-19T04:30:24Z
2019-05-19T02:33:13Z,42.805,6.029,13.2983,4.60003,2469.4,2019-5-19T04:33:27Z
2019-05-19T02:36:16Z,42.805,6.029,13.2989,4.59980,2469.377,2019-5-19T04:36:30Z
2019-05-19T02:39:19Z,42.805,6.029,13.2979,4.59978,2469.4,2019-5-19T04:39:33Z
2019-05-19T02:42:22Z,42.805,6.029,13.2976,4.59988,2469.377,2019-5-19T04:42:36Z
2019-05-19T02:45:25Z,42.805,6.029,13.2982,4.59986,2469.4,2019-5-19T04:45:39Z
2019-05-19T02:48:28Z,42.805,6.029,13.2990,4.59980,2469.386,2019-5-19T04:48:42Z
2019-05-19T02:51:31Z,42.805,6.029,13.2995,4.59986,2469.354,2019-5-19T04:51:45Z
2019-05-19T02:54:33Z,42.805,6.029,13.2975,4.59981,2469.377,2019-5-19T04:54:48Z
2019-05-19T02:57:36Z,42.805,6.029,13.2978,4.59989,2469.363,2019-5-19T04:57:51Z
2019-05-19T03:00:39Z,42.805,6.029,13.2983,4.60019,2469.386,2019-5-19T05:00:53Z
2019-05-19T03:03:42Z,42.805,6.029,13.2985,4.59985,2469.377,2019-5-19T05:03:56Z
2019-05-19T03:06:45Z,42.805,6.029,13.3012,4.59998,2469.386,2019-5-19T05:06:59Z
2019-05-19T03:09:48Z,42.805,6.029,13.3024,4.60019,2469.377,2019-5-19T05:10:02Z
2019-05-19T03:12:51Z,42.805,6.029,13.2996,4.59993,2469.424,2019-5-19T05:13:05Z
2019-05-19T03:15:54Z,42.805,6.029,13.2985,4.59978,2469.386,2019-5-19T05:16:08Z
2019-05-19T03:18:57Z,42.805,6.029,13.2990,4.59987,2469.386,2019-5-19T05:19:11Z
2019-05-19T03:22:00Z,42.805,6.029,13.3011,4.59999,2469.41,2019-5-19T05:22:14Z
2019-05-19T03:25:03Z,42.805,6.029,13.2996,4.59981,2469.424,2019-5-19T05:25:17Z
2019-05-19T03:28:06Z,42.805,6.029,13.3004,4.59975,2469.414,2019-5-19T05:28:20Z
2019-05-19T03:31:09Z,42.805,6.029,13.2977,4.59981,2469.4,2019-5-19T05:31:23Z
2019-05-19T03:34:12Z,42.805,6.029,13.2990,4.59985,2469.424,2019-5-19T05:34:26Z
2019-05-19T03:37:15Z,42.805,6.029,13.2976,4.59981,2469.4,2019-5-19T05:37:29Z
2019-05-19T03:40:18Z,42.805,6.029,13.2990,4.59991,2469.4,2019-5-19T05:40:32Z
2019-05-19T03:43:21Z,42.805,6.029,13.2996,4.59986,2469.424,2019-5-19T05:43:35Z
2019-05-19T03:46:24Z,42.805,6.029,13.2980,4.59981,2469.41,2019-5-19T05:46:38Z
2019-05-19T03:49:27Z,42.805,6.029,13.2987,4.59994,2469.447,2019-5-19T05:49:41Z
2019-05-19T03:52:29Z,42.805,6.029,13.2987,4.59979,2469.424,2019-5-19T05:52:44Z
2019-05-19T03:55:32Z,42.805,6.029,13.3003,4.60008,2469.433,2019-5-19T05:55:47Z
2019-05-19T03:58:35Z,42.805,6.029,13.2993,4.59994,2469.424,2019-5-19T05:58:49Z
2019-05-19T04:01:38Z,42.805,6.029,13.2991,4.59986,2469.4,2019-5-19T06:01:52Z
2019-05-19T04:04:41Z,42.805,6.029,13.2992,4.59990,2469.41,2019-5-19T06:04:55Z
2019-05-19T04:07:44Z,42.805,6.029,13.2991,4.60000,2469.47,2019-5-19T06:07:58Z
2019-05-19T04:10:47Z,42.805,6.029,13.2976,4.59986,2469.424,2019-5-19T06:11:01Z
2019-05-19T04:13:50Z,42.805,6.029,13.2996,4.59983,2469.424,2019-5-19T06:14:04Z
2019-05-19T04:16:53Z,42.805,6.029,13.2991,4.59994,2469.447,2019-5-19T06:17:07Z
2019-05-19T04:19:56Z,42.805,6.029,13.3006,4.59976,2469.461,2019-5-19T06:20:10Z
2019-05-19T04:22:59Z,42.805,6.029,13.2987,4.59978,2469.456,2019-5-19T06:23:13Z
2019-05-19T04:26:02Z,42.805,6.029,13.2983,4.59983,2469.47,2019-5-19T06:26:16Z
2019-05-19T04:29:05Z,42.805,6.029,13.3009,4.59985,2469.447,2019-5-19T06:29:19Z
2019-05-19T04:32:08Z,42.805,6.029,13.2993,4.59978,2469.456,2019-5-19T06:32:22Z
2019-05-19T04:35:11Z,42.805,6.029,13.2984,4.59992,2469.456,2019-5-19T06:35:25Z
2019-05-19T04:38:14Z,42.805,6.029,13.2998,4.59999,2469.47,2019-5-19T06:38:28Z
2019-05-19T04:41:17Z,42.805,6.029,13.2998,4.60004,2469.456,2019-5-19T06:41:31Z
2019-05-19T04:44:20Z,42.805,6.029,13.2990,4.59999,2469.48,2019-5-19T06:44:34Z
2019-05-19T04:47:23Z,42.805,6.029,13.3003,4.59985,2469.494,2019-5-19T06:47:37Z
2019-05-19T04:50:25Z,42.805,6.029,13.2986,4.59989,2469.494,2019-5-19T06:50:40Z
2019-05-19T04:53:28Z,42.805,6.029,13.2993,4.59992,2469.494,2019-5-19T06:53:43Z
2019-05-19T04:56:31Z,42.805,6.029,13.2993,4.59998,2469.494,2019-5-19T06:56:46Z
2019-05-19T04:59:34Z,42.805,6.029,13.3003,4.59991,2469.517,2019-5-19T06:59:48Z
2019-05-19T05:02:37Z,42.805,6.029,13.3009,4.60003,2469.517,2019-5-19T07:02:51Z
2019-05-19T05:05:40Z,42.805,6.029,13.3000,4.60011,2469.517,2019-5-19T07:05:54Z
2019-05-19T05:08:43Z,42.805,6.029,13.2998,4.59994,2469.517,2019-5-19T07:08:57Z
2019-05-19T05:11:46Z,42.805,6.029,13.2995,4.59989,2469.48,2019-5-19T07:12:00Z
2019-05-19T05:14:49Z,42.805,6.029,13.2991,4.60001,2469.48,2019-5-19T07:15:03Z
2019-05-19T05:17:52Z,42.805,6.029,13.3000,4.59996,2469.503,2019-5-19T07:18:06Z
2019-05-19T05:20:55Z,42.805,6.029,13.2997,4.59996,2469.517,2019-5-19T07:21:09Z
2019-05-19T05:23:58Z,42.805,6.029,13.2999,4.59991,2469.526,2019-5-19T07:24:12Z
2019-05-19T05:27:01Z,42.805,6.029,13.3006,4.60000,2469.54,2019-5-19T07:27:15Z
2019-05-19T05:30:04Z,42.805,6.029,13.3014,4.59983,2469.55,2019-5-19T07:30:18Z
2019-05-19T05:33:07Z,42.805,6.029,13.3009,4.59986,2469.526,2019-5-19T07:33:21Z
2019-05-19T05:36:10Z,42.805,6.029,13.3001,4.59991,2469.54,2019-5-19T07:36:24Z
2019-05-19T05:39:13Z,42.805,6.029,13.2998,4.59992,2469.54,2019-5-19T07:39:27Z
2019-05-19T05:42:16Z,42.805,6.029,13.3006,4.60001,2469.54,2019-5-19T07:42:30Z
2019-05-19T05:45:19Z,42.805,6.029,13.3040,4.59976,2469.526,2019-5-19T07:45:33Z
2019-05-19T05:48:22Z,42.805,6.029,13.2996,4.59982,2469.563,2019-5-19T07:48:36Z
2019-05-19T05:51:24Z,42.805,6.029,13.2993,4.59993,2469.503,2019-5-19T07:51:39Z
2019-05-19T05:54:27Z,42.805,6.029,13.2990,4.59991,2469.526,2019-5-19T07:54:41Z
2019-05-19T05:57:30Z,42.805,6.029,13.2989,4.59991,2469.526,2019-5-19T07:57:44Z
2019-05-19T06:00:33Z,42.805,6.029,13.3003,4.59986,2469.55,2019-5-19T08:00:47Z
2019-05-19T06:03:36Z,42.805,6.029,13.2989,4.59982,2469.55,2019-5-19T08:03:50Z
2019-05-19T06:06:39Z,42.805,6.029,13.2987,4.59986,2469.563,2019-5-19T08:06:53Z
2019-05-19T06:09:42Z,42.805,6.029,13.3014,4.59996,2469.54,2019-5-19T08:09:56Z
2019-05-19T06:12:45Z,42.805,6.029,13.3012,4.59992,2469.526,2019-5-19T08:12:59Z
2019-05-19T06:15:48Z,42.805,6.029,13.3014,4.59999,2469.563,2019-5-19T08:16:02Z
2019-05-19T06:18:51Z,42.805,6.029,13.3003,4.59990,2469.587,2019-5-19T08:19:05Z
2019-05-19T06:21:54Z,42.805,6.029,13.2993,4.59983,2469.563,2019-5-19T08:22:08Z
2019-05-19T06:24:57Z,42.805,6.029,13.2996,4.59991,2469.503,2019-5-19T08:25:11Z
2019-05-19T06:28:00Z,42.805,6.029,13.2993,4.59983,2469.563,2019-5-19T08:28:14Z
2019-05-19T06:31:03Z,42.805,6.029,13.2992,4.60014,2469.54,2019-5-19T08:31:17Z
2019-05-19T06:34:06Z,42.805,6.029,13.2996,4.59986,2469.526,2019-5-19T08:34:20Z
2019-05-19T06:37:09Z,42.805,6.029,13.2989,4.59980,2469.526,2019-5-19T08:37:23Z
2019-05-19T06:40:12Z,42.805,6.029,13.2991,4.59981,2469.55,2019-5-19T08:40:26Z
2019-05-19T06:43:15Z,42.805,6.029,13.2980,4.59983,2469.55,2019-5-19T08:43:29Z
2019-05-19T06:46:18Z,42.805,6.029,13.2996,4.59991,2469.573,2019-5-19T08:46:32Z
2019-05-19T06:49:20Z,42.805,6.029,13.2993,4.59983,2469.54,2019-5-19T08:49:35Z
2019-05-19T06:52:23Z,42.805,6.029,13.2994,4.59987,2469.573,2019-5-19T08:52:38Z
2019-05-19T06:55:26Z,42.805,6.029,13.2990,4.59986,2469.563,2019-5-19T08:55:40Z
2019-05-19T06:58:29Z,42.805,6.029,13.2995,4.59988,2469.573,2019-5-19T08:58:43Z
2019-05-19T07:01:32Z,42.805,6.029,13.2983,4.59987,2469.55,2019-5-19T09:01:46Z
2019-05-19T07:04:35Z,42.805,6.029,13.2988,4.59991,2469.55,2019-5-19T09:04:49Z
2019-05-19T07:07:38Z,42.805,6.029,13.2992,4.59986,2469.563,2019-5-19T09:07:52Z
2019-05-19T07:10:41Z,42.805,6.029,13.2994,4.59986,2469.587,2019-5-19T09:10:55Z
2019-05-19T07:13:44Z,42.805,6.029,13.2998,4.59985,2469.54,2019-5-19T09:13:58Z
2019-05-19T07:16:47Z,42.805,6.029,13.2991,4.59988,2469.563,2019-5-19T09:17:01Z
2019-05-19T07:19:50Z,42.805,6.029,13.2990,4.59989,2469.55,2019-5-19T09:20:04Z
2019-05-19T07:22:53Z,42.805,6.029,13.3010,4.59989,2469.573,2019-5-19T09:23:07Z
2019-05-19T07:25:56Z,42.805,6.029,13.3001,4.59983,2469.573,2019-5-19T09:26:10Z
2019-05-19T07:28:59Z,42.805,6.029,13.2993,4.59986,2469.587,2019-5-19T09:29:13Z
2019-05-19T07:32:02Z,42.805,6.029,13.2991,4.59993,2469.55,2019-5-19T09:32:16Z
2019-05-19T07:35:05Z,42.805,6.029,13.2996,4.59984,2469.563,2019-5-19T09:35:19Z
2019-05-19T07:38:08Z,42.805,6.029,13.2991,4.59985,2469.563,2019-5-19T09:38:22Z
2019-05-19T07:41:11Z,42.805,6.029,13.2991,4.59980,2469.587,2019-5-19T09:41:25Z
2019-05-19T07:44:14Z,42.805,6.029,13.2991,4.59996,2469.563,2019-5-19T09:44:28Z
2019-05-19T07:47:17Z,42.805,6.029,13.2998,4.59983,2469.563,2019-5-19T09:47:31Z
2019-05-19T07:50:19Z,42.805,6.029,13.2994,4.59981,2469.563,2019-5-19T09:50:34Z
2019-05-19T07:53:22Z,42.805,6.029,13.3005,4.59980,2469.563,2019-5-19T09:53:37Z
2019-05-19T07:56:25Z,42.805,6.029,13.3001,4.59985,2469.563,2019-5-19T09:56:39Z
2019-05-19T07:59:28Z,42.805,6.029,13.2988,4.59997,2469.55,2019-5-19T09:59:42Z
2019-05-19T08:02:31Z,42.805,6.029,13.2984,4.59990,2469.563,2019-5-19T10:02:45Z
2019-05-19T08:05:34Z,42.805,6.029,13.3002,4.59986,2469.55,2019-5-19T10:05:48Z
2019-05-19T08:08:37Z,42.805,6.029,13.2989,4.59988,2469.55,2019-5-19T10:08:51Z
2019-05-19T08:11:40Z,42.805,6.029,13.2995,4.59995,2469.55,2019-5-19T10:11:54Z
2019-05-19T08:14:43Z,42.805,6.029,13.2990,4.59991,2469.54,2019-5-19T10:14:57Z
2019-05-19T08:17:46Z,42.805,6.029,13.2990,4.59981,2469.55,2019-5-19T10:18:00Z
2019-05-19T08:20:49Z,42.805,6.029,13.2984,4.59990,2469.563,2019-5-19T10:21:03Z
2019-05-19T08:23:52Z,42.805,6.029,13.3015,4.59986,2469.54,2019-5-19T10:24:06Z
2019-05-19T08:26:55Z,42.805,6.029,13.3007,4.59986,2469.54,2019-5-19T10:27:09Z
2019-05-19T08:29:58Z,42.805,6.029,13.3006,4.59996,2469.526,2019-5-19T10:30:12Z
2019-05-19T08:33:01Z,42.805,6.029,13.3008,4.59986,2469.517,2019-5-19T10:33:15Z
2019-05-19T08:36:04Z,42.805,6.029,13.3009,4.60010,2469.503,2019-5-19T10:36:18Z
2019-05-19T08:39:07Z,42.805,6.029,13.2998,4.59984,2469.503,2019-5-19T10:39:21Z
2019-05-19T08:42:10Z,42.805,6.029,13.3015,4.59990,2469.526,2019-5-19T10:42:24Z
2019-05-19T08:45:13Z,42.805,6.029,13.3008,4.59991,2469.494,2019-5-19T10:45:27Z
2019-05-19T08:48:16Z,42.805,6.029,13.2993,4.59999,2469.526,2019-5-19T10:48:30Z
2019-05-19T08:51:18Z,42.805,6.029,13.2995,4.59986,2469.54,2019-5-19T10:51:33Z
2019-05-19T08:54:21Z,42.805,6.029,13.2999,4.59983,2469.54,2019-5-19T10:54:36Z
2019-05-19T08:57:24Z,42.805,6.029,13.2996,4.59988,2469.517,2019-5-19T10:57:38Z
2019-05-19T09:00:27Z,42.805,6.029,13.2986,4.59991,2469.503,2019-5-19T11:00:41Z
2019-05-19T09:03:30Z,42.805,6.029,13.2996,4.59995,2469.54,2019-5-19T11:03:44Z
2019-05-19T09:06:33Z,42.805,6.029,13.2993,4.59983,2469.503,2019-5-19T11:06:47Z
2019-05-19T09:09:36Z,42.805,6.029,13.2994,4.59986,2469.517,2019-5-19T11:09:50Z
2019-05-19T09:12:39Z,42.805,6.029,13.2987,4.59969,2469.48,2019-5-19T11:12:53Z
2019-05-19T09:15:42Z,42.805,6.029,13.2983,4.59972,2469.503,2019-5-19T11:15:56Z
2019-05-19T09:18:45Z,42.805,6.029,13.2979,4.59986,2469.503,2019-5-19T11:18:59Z
2019-05-19T09:21:48Z,42.805,6.029,13.2991,4.59987,2469.494,2019-5-19T11:22:02Z
2019-05-19T09:24:51Z,42.805,6.029,13.2991,4.59975,2469.517,2019-5-19T11:25:05Z
2019-05-19T09:27:54Z,42.805,6.029,13.2986,4.59990,2469.54,2019-5-19T11:28:08Z
2019-05-19T09:30:57Z,42.805,6.029,13.2981,4.59999,2469.503,2019-5-19T11:31:11Z
2019-05-19T09:34:00Z,42.805,6.029,13.3004,4.59983,2469.494,2019-5-19T11:34:14Z
2019-05-19T09:37:03Z,42.805,6.029,13.2996,4.59995,2469.503,2019-5-19T11:37:17Z
2019-05-19T09:40:06Z,42.805,6.029,13.3008,4.59991,2469.517,2019-5-19T11:40:20Z
2019-05-19T09:43:09Z,42.805,6.029,13.3016,4.59995,2469.494,2019-5-19T11:43:23Z
2019-05-19T09:46:12Z,42.805,6.029,13.2986,4.59993,2469.48,2019-5-19T11:46:26Z
2019-05-19T09:49:15Z,42.805,6.029,13.2991,4.59995,2469.503,2019-5-19T11:49:29Z
2019-05-19T09:52:18Z,42.805,6.029,13.3002,4.59996,2469.517,2019-5-19T11:52:32Z
2019-05-19T09:55:21Z,42.805,6.029,13.2996,4.59987,2469.48,2019-5-19T11:55:35Z
2019-05-19T09:58:23Z,42.805,6.029,13.2991,4.60002,2469.48,2019-5-19T11:58:38Z
2019-05-19T10:01:26Z,42.805,6.029,13.2999,4.59988,2469.47,2019-5-19T12:01:41Z
2019-05-19T10:04:29Z,42.805,6.029,13.2990,4.59973,2469.47,2019-5-19T12:04:43Z
2019-05-19T10:07:32Z,42.805,6.029,13.2997,4.59994,2469.48,2019-5-19T12:07:46Z
2019-05-19T10:10:35Z,42.805,6.029,13.2992,4.59991,2469.54,2019-5-19T12:10:49Z
2019-05-19T10:13:38Z,42.805,6.029,13.2988,4.59978,2469.47,2019-5-19T12:13:52Z
2019-05-19T10:16:41Z,42.805,6.029,13.2999,4.59986,2469.47,2019-5-19T12:16:55Z
2019-05-19T10:19:44Z,42.805,6.029,13.3002,4.59983,2469.47,2019-5-19T12:19:58Z
2019-05-19T10:22:47Z,42.805,6.029,13.2998,4.59999,2469.447,2019-5-19T12:23:01Z
2019-05-19T10:25:50Z,42.805,6.029,13.2996,4.59986,2469.433,2019-5-19T12:26:04Z
2019-05-19T10:28:53Z,42.805,6.029,13.2990,4.59981,2469.494,2019-5-19T12:29:07Z
2019-05-19T10:31:56Z,42.805,6.029,13.2988,4.59984,2469.456,2019-5-19T12:32:10Z
2019-05-19T10:34:59Z,42.805,6.029,13.2991,4.59985,2469.494,2019-5-19T12:35:13Z
2019-05-19T10:38:02Z,42.805,6.029,13.3000,4.59985,2469.447,2019-5-19T12:38:16Z
2019-05-19T10:41:05Z,42.805,6.029,13.2970,4.59982,2469.47,2019-5-19T12:41:19Z
2019-05-19T10:44:08Z,42.805,6.029,13.2986,4.59981,2469.433,2019-5-19T12:44:22Z
2019-05-19T10:47:11Z,42.805,6.029,13.3008,4.59986,2469.47,2019-5-19T12:47:25Z
2019-05-19T10:50:14Z,42.805,6.029,13.2983,4.59978,2469.456,2019-5-19T12:50:28Z
2019-05-19T10:53:17Z,42.805,6.029,13.2987,4.59980,2469.433,2019-5-19T12:53:31Z
2019-05-19T10:56:20Z,42.805,6.029,13.2996,4.59979,2469.424,2019-5-19T12:56:34Z
2019-05-19T10:59:23Z,42.805,6.029,13.2983,4.59984,2469.456,2019-5-19T12:59:37Z
2019-05-19T11:02:26Z,42.805,6.029,13.2983,4.59986,2469.433,2019-5-19T13:02:40Z
2019-05-19T11:05:28Z,42.805,6.029,13.2982,4.59978,2469.47,2019-5-19T13:05:43Z
2019-05-19T11:08:31Z,42.805,6.029,13.3000,4.59986,2469.447,2019-5-19T13:08:46Z
2019-05-19T11:11:34Z,42.805,6.029,13.2977,4.59969,2469.447,2019-5-19T13:11:48Z
2019-05-19T11:14:37Z,42.805,6.029,13.2994,4.59986,2469.456,2019-5-19T13:14:51Z
2019-05-19T11:17:40Z,42.805,6.029,13.2987,4.59997,2469.433,2019-5-19T13:17:54Z
2019-05-19T11:20:43Z,42.805,6.029,13.2991,4.59980,2469.447,2019-5-19T13:20:57Z
2019-05-19T11:23:46Z,42.805,6.029,13.2975,4.59991,2469.447,2019-5-19T13:24:00Z
2019-05-19T11:26:49Z,42.805,6.029,13.2979,4.60014,2469.424,2019-5-19T13:27:03Z
2019-05-19T11:29:52Z,42.805,6.029,13.2982,4.59978,2469.433,2019-5-19T13:30:06Z
2019-05-19T11:32:55Z,42.805,6.029,13.2982,4.59990,2469.424,2019-5-19T13:33:09Z
2019-05-19T11:35:58Z,42.805,6.029,13.2978,4.59988,2469.41,2019-5-19T13:36:12Z
2019-05-19T11:39:01Z,42.805,6.029,13.2985,4.59980,2469.447,2019-5-19T13:39:15Z
2019-05-19T11:42:04Z,42.805,6.029,13.2979,4.59978,2469.424,2019-5-19T13:42:18Z
2019-05-19T11:45:07Z,42.805,6.029,13.2993,4.59976,2469.447,2019-5-19T13:45:21Z
2019-05-19T11:48:10Z,42.805,6.029,13.2989,4.59979,2469.41,2019-5-19T13:48:24Z
2019-05-19T11:51:13Z,42.805,6.029,13.2983,4.59982,2469.424,2019-5-19T13:51:27Z
2019-05-19T11:54:16Z,42.805,6.029,13.2982,4.59988,2469.447,2019-5-19T13:54:30Z
2019-05-19T11:57:19Z,42.805,6.029,13.2982,4.59973,2469.424,2019-5-19T13:57:33Z
2019-05-19T12:00:22Z,42.805,6.029,13.2983,4.59981,2469.4,2019-5-19T14:00:36Z
2019-05-19T12:03:25Z,42.805,6.029,13.2991,4.59978,2469.386,2019-5-19T14:03:39Z
2019-05-19T12:06:28Z,42.805,6.029,13.2982,4.59982,2469.447,2019-5-19T14:06:42Z
2019-05-19T12:09:30Z,42.805,6.029,13.2979,4.59978,2469.4,2019-5-19T14:09:45Z
2019-05-19T12:12:33Z,42.805,6.029,13.2973,4.59983,2469.4,2019-5-19T14:12:48Z
2019-05-19T12:15:36Z,42.805,6.029,13.2971,4.59978,2469.424,2019-5-19T14:15:50Z
2019-05-19T12:18:39Z,42.805,6.029,13.2976,4.59971,2469.424,2019-5-19T14:18:53Z
2019-05-19T12:21:42Z,42.805,6.029,13.2985,4.59976,2469.41,2019-5-19T14:21:56Z
2019-05-19T12:24:45Z,42.805,6.029,13.3000,4.59980,2469.386,2019-5-19T14:24:59Z
2019-05-19T12:27:48Z,42.805,6.029,13.3006,4.59983,2469.4,2019-5-19T14:28:02Z
2019-05-19T12:30:51Z,42.805,6.029,13.2996,4.59976,2469.41,2019-5-19T14:31:05Z
2019-05-19T12:33:54Z,42.805,6.029,13.2980,4.59987,2469.377,2019-5-19T14:34:08Z
2019-05-19T12:36:57Z,42.805,6.029,13.3002,4.59979,2469.4,2019-5-19T14:37:11Z
2019-05-19T12:40:00Z,42.805,6.029,13.2986,4.59973,2469.363,2019-5-19T14:40:14Z
2019-05-19T12:43:03Z,42.805,6.029,13.2986,4.59985,2469.386,2019-5-19T14:43:17Z
2019-05-19T12:46:06Z,42.805,6.029,13.2975,4.59970,2469.4,2019-5-19T14:46:20Z
2019-05-19T12:49:09Z,42.805,6.029,13.2982,4.59982,2469.4,2019-5-19T14:49:23Z
2019-05-19T12:52:12Z,42.805,6.029,13.2987,4.59981,2469.363,2019-5-19T14:52:26Z
2019-05-19T12:55:15Z,42.805,6.029,13.2986,4.59983,2469.4,2019-5-19T14:55:29Z
2019-05-19T12:58:18Z,42.805,6.029,13.2978,4.59980,2469.363,2019-5-19T14:58:32Z
2019-05-19T13:01:21Z,42.805,6.029,13.2993,4.59984,2469.386,2019-5-19T15:01:35Z
2019-05-19T13:04:24Z,42.805,6.029,13.2982,4.59977,2469.386,2019-5-19T15:04:38Z
2019-05-19T13:07:27Z,42.805,6.029,13.2976,4.59976,2469.377,2019-5-19T15:07:41Z
2019-05-19T13:10:30Z,42.805,6.029,13.3004,4.59974,2469.377,2019-5-19T15:10:44Z
2019-05-19T13:13:32Z,42.805,6.029,13.3004,4.59984,2469.363,2019-5-19T15:13:47Z
2019-05-19T13:16:35Z,42.805,6.029,13.2982,4.59978,2469.4,2019-5-19T15:16:50Z
2019-05-19T13:19:38Z,42.805,6.029,13.2984,4.59976,2469.377,2019-5-19T15:19:52Z
2019-05-19T13:22:41Z,42.805,6.029,13.2993,4.59979,2469.363,2019-5-19T15:22:55Z
2019-05-19T13:25:44Z,42.805,6.029,13.2985,4.59981,2469.33,2019-5-19T15:25:58Z
2019-05-19T13:28:47Z,42.805,6.029,13.2978,4.59978,2469.377,2019-5-19T15:29:01Z
2019-05-19T13:31:50Z,42.805,6.029,13.2978,4.59982,2469.377,2019-5-19T15:32:04Z
2019-05-19T13:34:53Z,42.805,6.029,13.2996,4.59981,2469.4,2019-5-19T15:35:07Z
2019-05-19T13:37:56Z,42.805,6.029,13.2977,4.59978,2469.354,2019-5-19T15:38:10Z
2019-05-19T13:40:59Z,42.805,6.029,13.2991,4.59987,2469.386,2019-5-19T15:41:13Z
2019-05-19T13:44:02Z,42.805,6.029,13.2988,4.59976,2469.424,2019-5-19T15:44:16Z
2019-05-19T13:47:05Z,42.805,6.029,13.2978,4.59972,2469.391,2019-5-19T15:47:19Z
2019-05-19T13:50:08Z,42.805,6.029,13.2976,4.59981,2469.34,2019-5-19T15:50:22Z
2019-05-19T13:53:11Z,42.805,6.029,13.2990,4.59988,2469.363,2019-5-19T15:53:25Z
2019-05-19T13:56:14Z,42.805,6.029,13.2996,4.59973,2469.377,2019-5-19T15:56:28Z
2019-05-19T13:59:17Z,42.805,6.029,13.2974,4.59975,2469.34,2019-5-19T15:59:31Z
2019-05-19T14:02:20Z,42.805,6.029,13.2973,4.59982,2469.363,2019-5-19T16:02:34Z
2019-05-19T14:05:23Z,42.805,6.029,13.2997,4.59973,2469.363,2019-5-19T16:05:37Z
2019-05-19T14:08:26Z,42.805,6.029,13.2980,4.59990,2469.377,2019-5-19T16:08:40Z
2019-05-19T14:11:29Z,42.805,6.029,13.2989,4.59973,2469.4,2019-5-19T16:11:43Z
2019-05-19T14:14:32Z,42.805,6.029,13.2979,4.59969,2469.386,2019-5-19T16:14:46Z
2019-05-19T14:17:35Z,42.805,6.029,13.2983,4.59976,2469.424,2019-5-19T16:17:49Z
2019-05-19T14:20:37Z,42.805,6.029,13.2990,4.59970,2469.386,2019-5-19T16:20:52Z
2019-05-19T14:23:40Z,42.805,6.029,13.2980,4.59972,2469.386,2019-5-19T16:23:55Z
2019-05-19T14:26:43Z,42.805,6.029,13.2971,4.59975,2469.363,2019-5-19T16:26:58Z
2019-05-19T14:29:46Z,42.805,6.029,13.2981,4.59972,2469.377,2019-5-19T16:30:00Z
2019-05-19T14:32:49Z,42.805,6.029,13.2979,4.59976,2469.386,2019-5-19T16:33:03Z
2019-05-19T14:35:52Z,42.805,6.029,13.2971,4.59974,2469.377,2019-5-19T16:36:06Z
2019-05-19T14:38:55Z,42.805,6.029,13.2978,4.59970,2469.386,2019-5-19T16:39:09Z
2019-05-19T14:41:58Z,42.805,6.029,13.2974,4.59984,2469.354,2019-5-19T16:42:12Z
2019-05-19T14:45:01Z,42.805,6.029,13.2974,4.59974,2469.354,2019-5-19T16:45:15Z
2019-05-19T14:48:04Z,42.805,6.029,13.2970,4.59974,2469.377,2019-5-19T16:48:18Z
2019-05-19T14:51:07Z,42.805,6.029,13.2983,4.59971,2469.386,2019-5-19T16:51:21Z
2019-05-19T14:54:10Z,42.805,6.029,13.2974,4.59973,2469.4,2019-5-19T16:54:24Z
2019-05-19T14:57:13Z,42.805,6.029,13.2974,4.59975,2469.386,2019-5-19T16:57:27Z
2019-05-19T15:00:16Z,42.805,6.029,13.2986,4.59976,2469.386,2019-5-19T17:00:30Z
2019-05-19T15:03:19Z,42.805,6.029,13.2991,4.59996,2469.377,2019-5-19T17:03:33Z
2019-05-19T15:06:22Z,42.805,6.029,13.2974,4.59975,2469.377,2019-5-19T17:06:36Z
2019-05-19T15:09:25Z,42.805,6.029,13.2981,4.59972,2469.363,2019-5-19T17:09:39Z
2019-05-19T15:12:28Z,42.805,6.029,13.2979,4.59977,2469.4,2019-5-19T17:12:42Z